Starlink 4400

operational
NORAD ID: 53468 Int'l Des: 2022-099 Owner: SPXS Country: US Constellation: starlink
LEOCIRCULARRETROGRADESSO

Über Starlink 4400

Beschreibung wird geladen...

Live-Position

3D-Globus wird geladen...

Nächste Überflüge

Höhenverlauf

Altitude vs Time

uPlot chart will show altitude changes over time

Zweizeiliger Elementsatz

1 53468U 22099D 26062.32558901 .00000206 00000-0 20612-4 0 9990
2 53468 97.6030 183.9841 0002393 78.7399 281.4094 15.01261420195024
Epoch: 3. März 2026 • Age: 26 hours

Aktueller Status

Höhe 573.7 km
Geschwindigkeit 7.58 km/s
Subsatellitenpunkt 70.04°N, 164.07°W
Startdatum 12. Aug. 2022
Alter 3.5 years
Typ internet

Technische Details

Klassifizierung Payload
Masse 300.00 kg
Trockenmasse 275.00 kg
Gesamtmasse 300.00 kg
Länge 0.20 m
Durchmesser 2.80 m
Spannweite 9.00 m
Form Box + pan
Hersteller SPXS
Bus-Typ Starlink
Phasenstatus In Orbit
Besitzer/Staat SPXS/US

Große Konstellationen

Loading constellations...